RH
6 6 6 7 7 7 7 7 6 6 6 9 10 11 11 11 10 10 14 17 19 19 17 16 16 18 25 36 47 54 57 60 66 74 80 86 86 82 83 82 77 79 85 85 78 72 66 59 51 45 43 45 49 53 55 54 51 46 42 47 49 45 46 45 45 62 87 93 80 65 56 51 50 51 51 43 33 30 30 31 31 32 32 31 30 30 31
8 8 8 8 9 9 9 10 10 10 10 10 10 11 12 12 13 13 16 20 21 20 18 16 15 14 17 31 49 57 59 61 66 71 80 85 85 85 87 87 83 83 87 87 82 76 69 63 57 51 47 46 48 52 49 46 46 42 40 48 55 54 49 48 67 95 106 100 90 80 72 66 65 69 64 47 36 35 35 36 36 35 33 32 33 33 34
9 9 10 11 12 12 11 11 14 16 16 14 13 14 13 14 16 17 19 22 23 20 18 17 15 14 15 28 49 61 63 63 65 70 78 84 85 85 86 86 84 83 83 79 77 74 69 66 61 52 48 48 49 49 46 46 49 43 43 58 68 63 50 53 82 108 105 100 101 94 79 65 63 74 72 53 41 39 40 40 38 36 35 36 37 38 38
10 11 11 12 13 14 13 13 16 19 20 20 18 15 15 16 17 17 20 22 23 21 20 19 18 16 16 25 44 61 67 66 65 69 74 78 82 83 82 80 80 83 83 77 72 73 73 69 64 56 52 52 52 50 49 54 56 45 46 64 69 54 44 55 88 111 103 95 97 88 72 62 66 78 75 55 43 41 43 42 39 38 39 40 42 43 43
12 13 13 13 14 15 15 13 14 16 19 20 20 17 17 19 20 21 22 22 24 26 26 25 23 18 18 26 44 62 71 72 69 71 72 72 74 79 80 81 81 83 87 84 80 81 79 73 69 63 57 54 53 51 48 51 52 42 47 64 60 45 44 54 74 87 81 80 86 76 62 66 77 84 77 60 47 43 45 45 42 41 42 44 46 47 47
14 15 14 14 14 13 15 15 14 15 17 17 19 20 22 25 26 26 27 26 26 25 26 26 24 23 24 29 47 68 76 76 74 72 72 73 74 76 79 82 85 88 92 93 90 87 80 74 71 66 59 54 51 49 49 52 54 52 57 63 54 47 48 47 55 70 76 80 81 67 64 80 91 89 81 65 50 45 48 49 45 44 45 47 50 51 52
18 19 15 13 15 15 16 18 18 20 22 23 25 25 26 31 33 32 32 30 26 25 31 32 31 41 47 41 53 76 78 77 81 74 64 66 72 78 80 79 83 91 94 92 89 84 78 74 71 66 62 58 53 57 66 65 58 57 60 57 49 47 47 49 68 88 88 81 77 72 80 95 97 93 88 73 55 48 50 52 49 48 50 52 56 60 61
21 23 19 15 16 16 17 18 21 26 27 28 31 31 34 36 37 41 40 34 33 37 46 56 62 70 68 51 52 70 73 77 92 89 76 73 71 73 83 85 87 93 96 93 89 83 78 74 71 66 63 60 57 63 71 64 52 50 52 50 48 47 45 54 78 93 87 81 81 83 91 100 99 97 91 76 63 58 59 60 58 56 58 60 63 67 70
30 25 23 21 17 18 22 21 27 35 35 35 33 31 38 41 41 57 65 59 65 67 62 76 94 93 80 63 58 70 77 86 99 100 99 100 85 73 80 91 94 94 92 89 85 81 78 75 72 67 63 61 60 62 65 57 48 49 52 52 55 54 54 64 81 93 95 89 81 82 95 104 101 97 92 84 80 82 82 83 82 76 68 64 63 64 65
44 31 28 26 22 25 28 27 35 41 43 55 56 38 37 45 51 77 93 88 95 98 83 88 106 104 93 82 78 86 93 97 104 103 102 106 100 87 82 85 92 95 91 86 85 85 82 77 74 71 69 72 77 77 71 61 61 72 77 77 79 79 78 82 90 100 101 88 78 86 102 107 102 99 99 96 92 93 96 97 95 84 70 63 63 61 57
47 39 36 34 33 37 38 41 58 64 54 64 71 52 46 56 67 90 105 98 100 107 98 96 102 101 96 91 92 101 101 99 105 105 99 101 107 101 89 84 92 99 99 96 93 90 85 78 76 75 75 79 84 79 68 66 82 101 101 94 94 90 85 88 98 107 100 86 86 98 104 103 103 103 100 88 78 82 92 95 89 76 65 63 64 61 56
49 44 38 37 41 49 51 51 69 89 86 74 67 60 64 76 86 97 102 96 97 101 100 101 101 100 101 98 98 104 102 99 103 101 98 103 107 101 93 93 98 101 103 104 102 99 94 87 82 76 70 71 72 69 67 76 94 105 97 89 87 80 77 92 106 105 90 80 89 102 103 104 107 105 97 80 68 71 82 88 83 74 67 65 64 63 60
65 63 54 49 49 57 69 69 67 79 88 73 55 52 65 82 97 103 97 94 95 94 96 101 100 100 104 102 101 102 101 101 102 100 100 104 103 99 98 98 99 100 102 106 107 107 104 99 94 88 80 75 75 80 87 93 102 104 95 82 69 57 71 101 110 93 76 77 89 100 103 106 106 103 94 78 66 67 73 76 76 74 70 67 67 70 67
74 86 82 73 66 65 77 84 72 64 72 73 55 40 49 74 95 101 99 100 101 99 99 101 100 100 101 102 103 102 101 102 99 97 101 103 101 101 101 100 101 103 105 106 106 104 103 102 99 93 85 79 80 89 98 97 97 94 83 68 56 56 83 108 101 80 75 85 97 103 104 107 106 100 90 75 67 71 74 74 77 77 73 69 70 75 73
74 90 91 85 82 80 79 81 74 62 72 90 77 49 51 79 94 95 98 102 102 102 101 98 98 101 100 100 101 100 102 103 93 84 92 103 105 102 101 103 106 105 101 97 93 89 87 85 82 78 77 76 75 78 81 79 77 73 64 60 62 72 88 88 74 72 82 88 97 104 106 107 105 96 85 74 71 78 81 81 82 81 76 72 70 75 76
81 88 89 83 84 87 85 83 76 65 74 97 95 71 70 89 96 95 99 101 98 100 103 99 99 103 102 100 100 98 99 100 91 79 82 94 101 103 103 103 99 89 80 72 68 67 65 63 67 72 77 80 77 73 69 68 71 71 66 64 66 71 73 62 57 76 90 85 88 102 107 106 103 91 79 74 78 86 88 86 86 84 80 75 72 76 79
74 76 81 80 83 90 91 88 80 69 74 95 101 86 76 82 89 92 94 95 92 93 100 102 99 100 101 98 97 98 98 99 99 92 84 84 87 85 77 68 58 50 46 44 43 43 42 44 49 51 54 61 66 66 66 71 77 79 75 71 69 69 69 59 56 72 84 84 92 104 103 100 98 87 76 75 82 89 91 90 90 88 82 77 76 81 83
68 76 85 89 93 98 99 95 85 71 69 82 95 96 85 78 84 92 93 92 88 88 98 105 100 99 101 99 98 100 100 101 101 97 89 81 72 60 54 55 52 42 36 40 43 42 43 47 46 39 39 44 45 44 54 66 71 71 72 72 70 68 68 67 71 81 90 96 102 101 95 96 97 87 77 77 85 92 93 94 93 89 83 81 83 88 87
74 85 95 98 99 99 99 99 92 84 79 74 75 86 89 81 81 91 94 89 80 79 90 99 99 99 100 100 102 103 103 102 96 88 82 70 56 55 69 85 87 76 69 75 80 78 80 83 78 72 75 76 67 58 59 63 62 64 68 71 73 75 76 80 89 97 101 102 102 96 93 95 89 79 76 83 92 96 96 94 91 85 85 88 90 92 87
75 85 95 98 98 98 99 100 98 97 96 81 60 62 79 83 78 78 82 78 67 60 64 76 90 97 97 96 98 94 93 93 83 73 69 56 50 71 93 96 95 94 95 100 100 96 97 99 98 98 101 102 99 92 81 72 69 71 74 76 81 88 94 97 100 102 101 101 97 90 86 83 77 76 84 95 101 102 101 96 90 88 93 99 98 92 84
75 86 93 95 97 98 99 100 99 99 102 93 72 61 68 77 76 75 82 87 79 65 61 69 88 102 102 98 97 91 84 78 68 69 74 61 55 82 105 100 93 94 94 96 94 92 95 98 97 97 97 98 104 102 91 86 87 84 81 82 86 94 104 107 104 100 99 98 92 85 80 79 80 86 94 99 103 106 103 97 94 97 103 105 102 94 85
78 87 93 95 99 101 99 99 101 99 99 99 92 84 80 83 87 90 94 98 96 89 84 82 86 93 92 92 102 107 92 71 64 79 93 81 72 89 105 102 98 97 97 98 95 91 95 98 95 94 95 98 103 102 97 99 98 87 84 89 92 96 103 106 103 101 101 99 94 92 92 92 92 96 98 98 100 102 99 97 101 106 108 107 103 93 83
82 87 94 96 99 102 101 100 100 100 99 100 99 100 99 97 98 98 96 96 97 98 99 92 84 83 83 85 98 105 89 71 77 94 99 91 88 97 101 99 99 101 102 101 98 95 96 95 90 89 92 96 102 103 100 100 96 87 88 96 98 98 101 103 102 103 103 101 101 103 105 106 105 106 106 105 102 101 100 100 103 104 105 106 101 89 81
84 87 94 94 94 99 101 99 99 100 100 99 97 99 100 100 100 99 97 96 95 95 100 98 85 80 82 84 87 86 75 74 89 99 97 95 98 101 102 102 102 102 99 97 97 98 97 94 91 92 96 100 104 103 98 96 97 96 98 101 101 100 101 101 101 101 102 104 106 108 108 109 108 108 110 111 106 100 100 101 100 101 103 103 97 87 82
81 87 94 91 88 95 99 98 99 99 99 98 98 99 101 102 103 102 100 101 100 99 104 103 88 76 76 77 80 82 75 71 77 85 92 101 104 101 99 99 99 99 98 97 97 97 94 92 93 96 99 102 102 100 97 97 100 102 100 100 101 101 100 100 99 101 103 105 106 106 104 105 105 105 108 110 106 100 98 98 99 101 102 101 96 89 85
79 85 93 89 84 91 99 100 99 99 100 101 100 99 100 101 103 102 100 102 104 102 103 99 85 75 77 83 92 94 83 73 80 90 97 104 104 98 96 97 97 97 98 99 99 99 97 97 99 99 100 101 101 102 102 101 101 101 100 101 102 100 99 100 100 102 104 103 103 103 102 103 104 103 103 104 103 101 98 96 96 99 100 98 94 90 84
78 82 91 89 84 89 98 100 100 99 100 100 100 101 100 99 99 101 100 100 100 98 96 90 79 77 86 99 106 99 83 79 92 103 103 103 102 98 97 98 98 97 97 98 100 99 98 99 102 102 102 103 103 104 104 102 100 99 100 101 100 99 100 101 100 101 102 101 100 102 101 102 106 107 104 102 102 100 97 94 95 98 98 95 90 85 80
76 80 90 92 88 91 97 100 100 100 100 99 99 101 103 103 102 99 98 97 95 92 91 85 77 81 96 106 108 103 93 92 101 105 104 103 102 98 98 100 101 99 98 99 101 101 100 101 101 100 100 101 101 102 103 102 99 98 99 100 100 99 100 100 99 100 101 100 100 101 100 100 104 106 105 105 102 97 91 89 90 92 91 88 83 79 76
76 81 91 95 91 91 97 101 100 99 99 97 91 88 95 105 105 97 94 98 97 92 88 81 75 83 99 105 104 102 100 101 107 110 108 104 100 98 99 101 102 103 102 101 102 101 100 100 100 101 103 103 100 99 102 102 99 97 98 99 98 99 100 100 100 101 101 101 102 101 100 100 101 102 105 107 103 94 86 82 81 79 77 75 74 72 73
74 77 86 95 93 90 94 100 100 99 100 99 95 90 93 100 97 87 86 95 99 96 90 81 78 89 104 107 103 101 101 104 109 108 101 96 98 100 100 100 102 103 102 101 101 100 100 102 105 106 108 106 97 91 95 99 97 95 96 98 98 99 100 100 99 100 100 101 101 101 100 101 101 102 105 106 103 94 85 78 73 69 67 68 69 70 72
67 70 78 88 90 88 90 96 99 100 100 99 100 97 87 78 74 73 77 85 90 91 90 88 90 98 106 105 102 102 104 106 105 99 92 93 99 102 99 100 104 103 97 95 99 101 103 105 104 102 103 99 90 84 90 97 97 96 98 99 98 98 99 100 101 101 100 100 101 101 101 99 97 97 97 95 92 87 81 77 74 72 71 73 74 75 78
61 62 73 83 86 85 87 92 97 101 100 99 100 95 82 69 66 69 75 82 83 80 82 90 98 103 104 102 100 100 103 103 102 98 96 98 100 100 100 102 103 98 92 93 98 102 102 99 93 90 91 92 89 90 95 99 98 99 100 100 99 99 99 100 101 101 100 100 99 100 100 98 95 91 88 83 78 76 74 74 74 75 77 81 85 87 90
66 57 63 76 83 83 83 89 96 100 99 100 101 96 87 82 81 77 76 83 85 77 73 82 95 103 105 104 100 98 100 101 100 99 99 100 99 99 102 103 101 97 96 97 97 96 97 96 92 91 94 96 96 98 100 99 99 100 101 101 100 100 100 100 101 101 101 101 99 96 95 92 87 83 81 78 75 71 70 71 73 77 82 88 93 97 101
86 68 60 65 74 77 77 82 92 99 99 100 101 97 90 92 98 91 80 80 87 83 74 75 84 95 102 105 103 100 98 100 100 99 99 100 100 100 101 102 100 97 99 101 98 96 99 100 97 95 97 99 98 100 101 101 101 100 99 99 100 101 101 102 101 100 99 100 99 95 89 83 77 72 70 70 70 70 73 77 82 87 92 97 101 105 108
100 87 73 67 70 75 75 73 79 91 98 99 100 100 96 96 101 98 85 79 83 83 77 75 81 89 96 102 104 102 99 99 100 100 99 98 98 99 101 102 101 98 99 100 99 98 101 102 99 97 98 99 99 101 101 101 101 101 100 99 99 99 100 101 101 100 100 100 98 94 89 82 75 69 67 68 73 79 85 89 93 95 97 99 99 100 99
100 94 86 79 77 79 80 76 72 78 89 96 99 100 98 95 99 101 94 82 75 73 75 79 85 91 97 101 101 101 101 101 100 100 101 100 100 101 102 102 100 99 100 100 100 100 102 102 100 100 99 99 99 99 99 100 101 102 101 100 99 99 101 102 102 101 100 98 96 93 88 81 75 71 70 74 80 86 89 92 93 94 94 93 93 94 94
95 93 91 90 86 81 83 87 83 77 78 85 92 98 97 92 92 98 100 91 75 63 64 73 83 92 100 103 100 98 100 101 100 100 100 100 100 102 104 104 101 99 98 99 99 100 101 101 100 100 100 100 100 101 100 101 101 100 100 101 101 100 101 103 103 103 102 100 97 91 85 80 77 76 78 82 86 88 91 95 97 97 97 97 98 98 98
91 90 92 96 95 88 84 88 90 86 79 76 80 89 95 92 85 86 95 100 89 69 56 58 73 88 99 104 103 101 101 100 98 98 99 99 100 102 102 103 102 101 100 101 101 101 100 100 101 101 101 101 100 100 101 101 101 100 101 101 100 100 101 104 105 105 105 101 96 89 83 80 79 79 80 82 84 85 90 96 98 97 94 92 91 90 89
86 89 92 97 101 100 93 87 85 86 85 81 78 80 87 90 86 81 83 91 94 83 65 53 58 72 87 97 101 103 103 102 101 100 99 100 101 101 101 102 102 100 99 100 101 101 100 99 99 99 100 100 100 100 100 100 100 100 100 100 100 101 102 103 102 100 96 90 84 79 76 76 76 76 74 73 72 73 77 82 84 83 81 80 81 82 83
80 85 90 95 101 105 104 96 86 78 78 81 81 79 79 83 86 84 80 79 83 87 80 65 54 56 67 81 91 95 98 100 103 103 103 104 104 103 103 104 104 102 101 101 101 101 100 100 100 100 100 99 99 99 99 99 100 101 100 100 100 101 102 101 98 92 84 76 70 68 68 71 73 72 69 66 64 66 69 72 75 77 79 81 82 84 87
75 79 84 93 101 106 107 104 95 81 72 75 80 81 80 80 82 83 81 75 72 75 79 76 66 56 53 59 70 80 86 90 94 96 98 102 106 107 105 103 102 99 98 99 100 101 100 99 100 100 99 100 103 104 103 103 104 104 102 99 98 98 97 95 89 82 74 67 62 61 63 65 67 67 66 66 68 70 72 74 76 78 81 84 87 91 94
71 74 80 90 100 106 107 107 103 92 81 78 78 78 78 80 81 83 81 74 66 64 68 73 75 69 60 53 53 59 66 74 80 84 86 88 91 93 95 98 99 96 93 93 97 99 99 99 99 100 100 102 104 104 102 100 101 99 95 91 89 88 86 82 77 72 67 63 59 58 61 65 68 69 69 70 71 72 73 75 76 80 84 90 94 96 98
67 71 79 89 99 103 104 106 107 103 95 86 79 74 73 73 76 81 84 81 73 67 65 67 71 73 70 64 58 55 53 54 57 61 65 67 67 68 72 80 87 89 88 87 89 92 94 95 96 97 98 99 99 98 95 93 91 88 82 79 77 77 77 75 73 69 66 64 64 65 68 70 72 72 74 75 77 79 82 84 87 91 96 99 100 100 100
63 68 78 91 99 102 103 105 108 110 106 94 81 73 71 70 69 73 83 89 87 80 73 69 69 69 69 68 67 67 65 61 56 52 50 48 48 50 54 60 68 75 78 78 78 81 84 86 87 88 89 89 88 86 83 80 76 73 71 72 73 74 74 73 71 69 69 71 72 73 73 74 75 79 84 87 89 91 94 96 98 100 102 103 103 102 101
62 67 78 88 94 99 104 107 108 108 107 96 79 67 68 73 72 72 78 88 93 91 87 82 77 73 70 67 65 66 68 70 71 70 66 61 56 53 51 51 53 56 59 60 63 65 68 70 71 71 69 67 66 65 65 65 65 65 66 69 70 70 70 71 72 73 74 74 74 76 79 83 88 92 95 95 95 96 96 97 97 98 100 101 102 101 102
62 68 75 81 85 92 102 108 106 103 101 93 76 65 68 77 79 78 79 84 90 96 100 98 93 87 82 77 72 69 67 66 66 69 71 72 70 66 62 59 56 54 53 53 53 54 55 56 56 56 55 55 56 57 59 60 62 63 64 66 68 70 74 76 77 76 76 77 81 88 93 96 99 101 100 99 99 100 100 100 100 100 101 104 106 105 106
64 69 71 72 75 83 94 101 100 99 96 87 73 67 75 86 91 91 89 89 92 96 101 103 102 99 94 89 85 83 80 76 71 69 68 69 68 66 64 63 61 60 60 59 58 58 59 59 59 60 60 62 64 65 66 67 67 67 69 71 73 76 78 78 78 79 82 86 94 101 105 105 106 106 105 104 105 106 106 107 107 106 107 109 109 105 102
68 74 73 69 70 77 84 87 88 87 84 75 65 64 76 91 100 103 102 101 100 101 102 103 104 104 102 100 98 95 93 90 88 87 85 84 81 77 72 69 68 69 70 70 70 71 72 73 74 76 78 80 82 83 83 83 81 80 79 79 78 78 79 81 84 87 90 93 98 103 106 107 108 108 107 107 109 111 111 111 110 108 105 102 98 94 90
65 71 72 71 74 79 83 84 86 84 77 67 58 58 66 80 93 101 104 105 104 103 103 103 104 104 104 103 99 94 90 91 94 97 98 98 97 95 92 91 90 90 91 90 90 90 90 90 91 92 92 92 92 92 92 91 89 87 86 86 85 86 88 90 91 92 93 94 97 101 104 105 107 109 110 110 112 112 110 107 104 100 96 92 89 87 85
53 59 64 69 77 81 81 80 81 78 69 59 51 48 51 60 74 87 97 102 104 105 107 107 106 105 104 103 99 92 87 86 89 93 97 100 101 101 101 101 100 98 97 97 97 97 96 96 95 94 94 93 94 95 95 94 92 92 93 94 96 98 99 98 97 97 98 100 102 104 106 106 108 110 110 109 107 104 101 98 95 92 91 90 88 87 85
41 49 55 60 63 66 67 69 72 70 65 58 53 49 47 50 60 74 87 96 102 105 108 109 108 106 105 106 107 106 102 98 96 97 99 102 103 104 103 102 102 102 102 103 104 104 102 99 99 99 99 99 99 98 97 95 96 99 100 99 100 102 102 99 98 100 102 102 104 106 108 109 110 109 105 101 98 95 94 93 93 93 92 90 88 85 82
32 39 45 46 46 50 56 64 69 70 67 62 57 54 52 53 57 65 76 86 95 101 104 107 109 109 109 108 108 109 109 108 107 108 108 108 109 109 108 107 108 109 110 111 112 110 107 105 104 105 104 103 100 98 97 99 102 103 100 94 92 95 96 96 96 98 99 100 101 104 106 108 108 106 101 98 97 97 97 97 95 93 90 87 83 78 72
Wind_Speed
18 20 22 24 24 23 22 22 25 28 32 36 38 39 41 43 46 49 53 57 61 65 69 72 74 75 76 78 79 80 80 78 76 75 73 71 68 66 64 61 57 55 54 52 50 49 48 46 44 43 42 43 44 45 45 43 42 42 41 41 42 41 36 34 35 36 37 36 35 35 35 36 37 37 37 37 37 38 40 41 41 42 42 42 42 42 41
18 21 23 23 22 24 25 24 22 22 26 32 36 38 39 41 44 48 51 54 57 61 63 67 69 69 70 73 77 78 78 78 76 75 73 71 69 66 63 61 58 57 55 53 51 49 48 46 44 44 44 44 45 47 46 46 45 44 43 42 43 40 36 35 36 36 36 35 33 33 34 35 36 35 35 35 36 38 39 40 40 40 41 41 40 40 40
19 21 23 23 23 23 26 28 27 25 27 29 32 35 38 41 44 46 49 51 53 56 58 60 62 63 65 70 74 76 76 77 75 75 74 72 68 66 64 62 59 57 55 53 50 48 46 45 44 43 44 44 46 47 46 46 45 44 42 42 42 40 38 38 37 36 36 36 36 37 37 37 36 36 35 36 37 38 39 39 39 39 39 39 39 39 40
21 21 22 24 24 23 25 29 30 29 28 28 31 34 38 40 43 45 47 49 50 50 49 50 53 55 58 65 72 74 74 74 74 74 74 72 69 65 63 61 58 56 54 52 49 47 46 45 43 42 43 44 45 46 46 46 45 43 43 43 42 42 42 40 38 38 39 40 40 39 39 38 37 37 37 36 36 37 38 38 38 38 38 38 38 39 39
21 21 22 23 24 25 25 27 30 30 29 29 30 32 36 39 41 43 44 46 46 44 43 44 46 48 52 59 68 71 71 72 72 71 70 68 67 65 62 60 58 55 52 50 48 48 47 46 45 44 44 45 45 46 47 46 46 44 44 44 44 43 43 41 41 42 43 42 41 40 39 38 37 37 37 37 37 38 38 38 38 37 37 37 38 39 40
20 19 20 22 24 24 24 25 27 28 28 29 29 31 34 36 38 38 38 39 39 39 40 42 43 45 49 56 63 65 66 68 67 67 65 63 64 64 62 60 58 55 53 51 50 50 49 48 47 45 44 44 44 44 44 44 44 43 43 44 43 42 42 42 42 43 43 41 40 40 39 38 37 38 38 38 39 39 38 38 38 37 37 37 38 40 41
21 19 19 22 24 25 25 25 26 27 27 28 29 30 32 33 34 33 32 33 33 34 36 38 41 44 47 54 58 57 59 62 59 57 61 62 62 63 61 59 58 55 53 52 51 50 48 46 45 44 44 45 44 44 43 43 42 41 42 44 44 42 42 42 42 42 41 41 40 40 38 38 38 39 39 40 41 41 40 39 38 37 37 38 39 40 40
21 20 20 22 24 26 26 27 28 27 27 29 31 32 32 32 31 29 27 28 30 34 37 39 43 46 46 52 57 55 57 60 53 47 54 61 63 62 60 57 56 54 53 52 50 49 48 45 42 41 42 44 44 44 43 42 41 41 42 44 44 43 42 41 42 42 42 42 41 40 39 39 40 40 41 42 43 41 39 37 35 36 37 38 39 40 40
19 20 20 21 23 26 26 28 29 29 29 29 31 33 34 32 31 28 27 29 32 34 38 41 44 46 47 50 53 52 55 59 53 47 50 56 61 62 59 55 55 54 53 52 50 48 47 45 43 41 40 40 41 43 43 42 41 41 43 44 44 43 42 41 43 43 43 42 41 40 41 41 41 42 41 40 39 36 34 33 34 37 40 40 41 41 41
20 21 22 22 23 26 28 29 30 30 30 27 27 32 34 33 33 33 32 34 36 36 38 41 41 40 43 45 46 45 49 54 54 51 48 49 54 58 56 53 53 53 52 51 50 48 46 45 44 43 41 40 40 40 41 41 41 42 43 43 42 41 41 41 43 43 43 43 42 42 42 42 40 39 38 38 39 38 38 38 41 42 43 42 43 43 43
22 23 24 24 25 25 28 29 27 26 29 29 30 35 37 36 37 38 36 34 37 39 41 42 40 37 37 40 45 49 49 49 52 50 44 43 47 49 45 43 46 49 49 48 47 45 43 42 42 42 42 41 40 40 40 40 40 41 41 40 39 39 39 40 42 43 43 43 43 42 42 41 40 39 40 41 43 44 45 45 46 46 45 44 44 45 44
21 22 23 25 26 26 26 24 23 26 29 32 35 39 40 40 41 41 39 35 36 43 46 45 44 43 41 41 48 54 53 50 52 50 45 45 47 45 40 37 37 41 44 44 43 42 41 41 41 41 41 41 41 41 41 41 42 41 40 39 39 40 40 41 42 43 44 45 45 44 43 44 45 46 45 44 43 44 46 47 47 47 46 45 45 45 45
22 22 22 24 26 27 25 20 19 23 25 29 34 38 41 44 45 44 43 38 37 44 50 49 47 46 46 48 50 54 56 55 54 51 49 52 52 47 43 39 34 35 38 38 39 39 38 38 38 37 37 38 40 41 41 41 43 43 42 41 41 41 42 43 44 45 46 46 45 45 46 47 49 49 47 45 46 46 47 48 49 48 47 46 46 46 45
26 25 23 24 24 26 27 23 20 21 22 25 30 33 37 44 46 46 47 43 41 46 51 50 48 46 48 52 54 54 55 57 57 53 49 51 54 51 49 45 40 36 36 36 35 34 34 35 35 35 35 37 39 40 41 41 43 44 45 44 43 42 43 45 47 47 46 44 43 45 48 49 49 48 48 48 48 48 48 49 49 48 47 47 46 46 46
26 27 26 25 25 24 24 23 22 23 24 27 29 30 35 43 44 44 48 48 45 49 51 50 49 48 49 53 57 57 55 56 58 55 50 49 50 49 47 44 40 37 36 36 36 35 35 35 34 34 35 36 38 40 42 43 44 45 46 45 44 43 45 47 47 44 42 43 45 48 49 49 49 49 49 49 49 49 49 49 49 49 48 47 47 47 47
27 28 28 28 27 25 22 22 23 23 24 28 31 32 38 45 45 43 47 49 47 49 50 48 49 51 49 48 52 55 54 53 54 53 51 49 46 45 44 42 40 39 38 39 39 38 37 35 34 33 33 34 36 38 40 41 42 42 43 44 45 46 47 49 47 44 44 46 48 50 50 50 50 51 51 50 50 50 50 50 50 50 49 48 48 48 47
28 30 30 30 29 26 21 20 21 23 24 25 26 30 35 42 45 44 45 47 48 50 51 50 49 50 48 43 43 45 47 47 48 48 49 48 45 45 45 44 44 42 39 37 35 34 35 35 35 36 34 33 33 33 34 36 37 39 41 43 45 47 47 46 45 46 48 50 50 51 51 51 52 52 52 51 51 51 51 51 51 50 49 49 49 48 48
28 30 31 31 29 26 21 18 18 22 25 21 19 26 35 40 44 45 43 44 46 50 53 52 49 47 46 45 45 46 46 46 45 45 46 46 45 42 38 35 35 33 30 27 27 27 29 31 34 36 35 34 33 33 34 36 37 39 40 41 43 45 44 43 42 44 47 48 49 51 52 53 54 54 53 52 52 52 52 52 51 51 50 49 49 48 49
31 33 34 32 30 27 23 19 19 21 22 19 20 30 40 41 43 45 44 41 42 47 53 54 50 47 48 50 52 51 50 48 47 45 44 44 42 39 35 32 29 27 24 21 21 22 23 25 28 31 35 37 36 35 35 37 38 39 39 39 39 41 43 43 42 44 47 49 51 53 55 55 55 54 53 53 53 52 52 52 52 51 50 49 49 49 50
33 35 35 33 31 29 26 24 22 20 20 20 23 31 39 41 41 41 38 32 31 36 43 47 47 45 46 48 51 53 52 50 47 45 43 41 39 38 39 40 37 30 27 24 22 22 22 21 22 27 33 37 38 36 35 34 36 37 38 39 40 41 44 45 45 46 49 52 54 56 56 55 54 53 53 53 52 52 52 52 51 51 50 50 50 51 52
34 35 36 34 32 32 29 28 26 23 22 24 25 27 34 38 37 33 28 22 20 25 30 36 42 42 38 37 40 44 48 49 47 44 42 41 42 42 42 43 41 34 31 32 30 28 27 27 27 31 35 39 44 45 40 36 37 40 41 41 43 44 46 47 48 49 51 53 55 55 54 54 54 53 53 53 53 53 53 52 51 51 50 50 52 52 53
35 37 37 36 35 35 32 30 30 28 27 29 30 30 33 33 30 26 22 16 14 17 22 28 37 40 37 34 34 35 41 45 45 45 44 43 43 45 44 42 39 34 33 37 37 34 33 31 32 34 38 43 50 50 44 40 42 46 46 46 46 47 48 48 49 50 52 53 54 54 54 54 53 53 54 54 54 54 54 53 52 51 52 52 53 54 54
37 38 39 38 38 38 36 36 36 34 33 32 33 33 33 31 28 25 21 14 10 11 16 24 33 38 38 37 37 39 43 45 46 47 47 43 42 44 43 41 38 35 36 38 39 37 34 33 35 39 42 47 51 49 44 45 49 51 52 52 51 50 50 49 49 50 51 52 52 53 53 53 53 53 54 54 54 54 54 53 53 54 54 54 54 55 55
40 40 39 39 39 39 40 41 40 39 39 39 38 36 35 33 30 27 24 19 18 21 26 29 33 37 38 39 41 43 45 47 49 50 48 44 43 44 42 38 36 35 34 34 35 35 35 36 40 42 44 48 51 49 49 53 55 56 57 57 54 52 51 50 50 51 51 51 51 51 52 53 54 54 54 54 54 54 54 54 55 56 56 55 55 56 56
41 41 40 39 39 39 41 42 42 41 41 43 43 42 40 40 39 36 32 30 30 35 40 40 38 38 40 41 42 44 46 49 52 52 49 47 47 43 37 34 33 32 30 32 34 35 36 40 45 46 47 50 52 54 57 61 63 63 62 59 56 54 52 51 51 51 50 50 50 51 52 53 54 54 55 55 55 55 55 55 56 56 56 56 56 57 58
42 42 41 40 40 40 41 43 43 43 44 46 47 46 45 45 45 43 39 37 38 42 46 45 42 41 41 42 43 46 48 51 52 49 48 49 49 43 36 34 34 31 29 34 40 40 38 41 47 50 51 53 56 60 64 67 67 67 64 59 55 52 51 51 51 51 50 50 50 51 52 53 54 55 55 55 56 57 57 56 56 56 57 57 58 59 60
43 43 42 41 41 41 42 44 44 44 45 49 51 49 47 47 48 46 43 40 41 43 45 45 44 44 44 46 48 48 49 50 48 46 47 50 48 43 39 40 41 36 30 34 45 50 47 46 50 54 56 59 63 66 68 68 64 61 59 56 52 50 50 50 50 50 50 50 49 50 50 51 53 54 55 56 58 59 60 59 58 59 60 60 61 62 63
44 45 44 43 44 44 44 46 46 44 43 48 53 53 50 48 50 50 46 40 39 41 44 45 46 47 48 50 50 49 49 49 47 48 49 50 46 42 41 45 48 45 37 35 45 55 56 53 53 55 57 59 62 63 62 60 56 53 52 52 49 47 47 47 47 48 49 49 49 50 51 51 52 53 54 56 59 61 61 61 60 61 62 62 63 63 63
45 48 47 46 46 47 47 47 48 45 42 45 52 56 53 51 52 52 46 41 40 42 43 45 47 50 51 51 51 51 51 50 50 51 51 48 45 44 45 49 54 54 47 42 45 51 54 57 59 59 58 57 57 56 54 51 49 49 49 47 44 42 42 44 45 47 48 49 50 51 51 52 53 54 54 57 61 62 62 61 61 62 62 62 62 62 62
44 50 51 49 49 50 50 50 49 46 42 43 47 52 54 55 55 52 47 44 44 44 44 46 49 50 51 51 52 53 53 53 54 54 50 46 46 48 51 55 57 55 50 46 46 47 49 52 57 59 60 59 59 58 55 52 50 50 49 46 43 43 44 46 48 50 51 52 53 53 53 54 54 55 56 59 62 64 64 63 64 64 63 62 62 62 62
41 48 51 52 52 52 53 53 51 48 46 46 46 47 50 52 53 52 49 47 47 48 47 48 50 51 52 52 53 54 56 58 57 55 51 48 48 51 55 59 59 55 50 47 47 48 48 48 51 54 57 59 60 60 59 58 55 52 50 48 47 48 50 51 53 55 56 57 58 58 57 57 56 56 57 59 61 63 63 64 64 64 63 63 64 64 64
38 44 49 54 54 54 55 56 54 52 51 50 48 46 44 44 47 49 48 47 49 51 51 52 53 54 54 54 54 55 58 60 60 57 53 51 50 53 59 62 60 57 54 50 47 47 46 44 44 46 50 52 54 54 55 56 56 55 55 55 54 55 56 58 59 60 61 61 62 62 61 61 61 60 60 61 62 62 63 64 64 65 65 66 66 66 66
37 40 46 53 56 56 56 57 57 56 55 53 50 47 43 41 43 46 47 47 49 52 53 55 56 57 56 56 56 56 57 59 59 57 55 54 53 55 61 65 63 61 59 54 49 47 48 45 43 44 46 48 49 49 49 51 54 56 58 59 60 61 62 64 64 65 66 66 65 66 66 66 66 66 65 65 65 65 65 65 66 66 67 67 67 68 68
38 39 42 48 54 57 58 59 60 60 59 56 54 51 48 44 43 45 46 47 50 54 57 58 59 59 59 59 58 58 57 57 56 54 53 54 55 57 62 67 67 65 63 60 54 53 53 50 47 48 50 52 53 54 53 53 55 57 60 62 64 65 67 69 70 70 70 69 69 69 70 70 70 68 67 67 67 67 67 67 67 67 68 68 68 68 69
40 41 41 43 48 54 58 60 61 63 62 60 58 56 53 50 47 46 47 49 52 56 59 61 62 62 62 62 61 60 59 57 56 54 52 52 54 57 63 68 69 69 68 65 62 60 59 56 54 54 56 58 61 63 63 62 62 63 65 67 69 71 72 73 73 73 72 72 72 72 72 72 70 69 67 66 65 65 66 66 67 67 68 68 68 68 68
42 43 42 42 45 50 56 60 61 63 64 64 62 60 59 57 54 51 50 52 55 57 60 63 65 65 65 65 64 62 61 59 57 56 55 54 55 58 63 68 70 71 70 68 65 65 66 65 63 63 64 66 69 70 71 70 70 69 70 71 72 73 74 74 75 75 75 76 76 75 74 73 71 69 67 65 64 64 64 65 66 67 67 68 69 69 70
44 44 43 43 44 47 52 58 62 64 65 66 65 64 63 62 60 58 56 56 57 58 60 64 67 67 67 67 67 66 64 63 61 59 59 59 59 62 65 68 70 70 70 69 68 67 69 71 71 71 72 73 75 76 76 76 76 75 74 74 74 74 75 75 76 77 77 77 77 77 75 73 71 69 67 66 65 65 66 66 67 68 70 71 72 74 76
46 45 44 43 45 46 49 55 61 64 65 66 66 66 66 65 65 64 62 61 60 60 60 64 68 70 70 70 69 69 68 66 65 63 63 62 63 65 68 70 72 72 72 71 71 71 72 74 75 75 75 76 77 78 79 79 79 78 77 76 76 76 76 76 76 77 77 78 78 77 76 75 73 71 70 69 69 69 70 71 73 74 76 78 80 82 83
46 47 45 45 45 46 48 52 56 60 63 65 66 67 68 68 67 67 66 66 65 63 61 63 68 73 74 73 72 72 71 70 68 67 67 67 68 69 71 72 73 74 73 73 73 74 75 76 75 75 75 76 78 80 81 81 81 80 79 79 78 78 78 79 79 79 80 80 81 81 80 80 79 78 77 77 77 78 79 80 81 83 84 85 86 85 84
44 47 47 46 46 47 49 51 53 56 59 61 63 66 68 69 69 68 68 69 69 67 65 64 66 71 76 77 75 74 74 74 73 73 72 72 72 73 74 75 76 75 75 75 75 76 78 77 75 74 74 75 78 80 81 82 82 82 82 82 82 83 84 85 85 86 86 86 85 84 83 82 82 82 83 83 84 85 85 86 86 86 85 84 82 79 76
42 46 48 48 47 48 50 51 53 53 54 56 59 62 65 68 69 69 69 69 69 70 70 68 66 67 72 76 78 78 78 78 78 78 77 77 77 78 79 80 80 79 79 78 78 79 79 79 78 77 76 76 77 80 81 82 83 84 86 87 88 89 91 92 92 92 91 89 87 85 84 84 84 85 86 86 86 86 85 84 83 80 77 74 71 68 66
40 43 46 48 49 50 51 52 53 53 52 54 57 61 63 66 68 70 70 69 67 67 68 70 71 69 69 70 74 77 80 82 82 82 82 81 81 82 82 83 83 83 83 82 82 82 82 81 81 81 80 80 81 82 83 83 85 86 88 90 91 92 93 93 93 92 90 89 87 86 85 85 85 85 84 83 82 80 78 76 73 69 66 63 62 60 59
38 40 43 47 51 53 53 53 53 53 54 55 57 60 62 64 66 68 70 69 67 65 64 66 69 72 72 71 71 73 76 80 82 84 85 85 85 85 84 85 85 85 84 84 84 84 84 84 83 83 83 84 85 86 87 87 89 90 91 91 91 90 90 89 88 87 87 87 87 86 85 84 82 80 77 74 72 69 67 64 62 60 58 58 58 58 59
38 39 41 46 51 54 55 54 54 54 56 58 59 60 61 62 63 64 66 67 67 65 63 62 64 66 69 70 71 73 75 77 79 81 82 83 84 85 85 85 86 86 86 85 85 85 85 86 86 86 87 87 88 89 90 91 91 91 90 89 87 86 85 84 84 85 85 85 85 84 81 78 75 71 67 64 62 60 58 57 57 57 57 58 59 60 61
39 40 42 46 50 54 55 56 56 57 59 62 62 60 59 59 61 62 63 64 65 64 63 63 62 62 63 64 65 68 71 74 77 79 80 81 81 82 82 83 84 85 85 85 85 86 86 87 88 88 89 89 89 89 89 89 88 87 85 84 82 82 82 82 83 83 83 81 78 75 72 69 65 62 59 58 57 57 56 56 57 57 58 59 60 62 63
41 42 44 46 49 51 54 57 59 60 62 65 65 60 55 55 57 59 61 62 63 64 64 64 64 64 63 62 62 62 63 66 68 71 74 76 78 79 80 81 81 82 82 82 83 84 85 86 87 87 87 87 86 85 84 84 83 82 80 79 79 79 80 80 80 78 75 71 68 65 63 61 60 58 57 57 57 58 58 59 59 60 60 61 62 63 65
41 43 46 47 48 50 53 58 61 63 65 66 64 59 53 52 54 57 59 61 62 64 66 66 67 66 66 65 64 63 63 63 63 63 64 66 68 70 71 73 74 75 75 75 75 76 77 78 79 80 80 80 80 80 79 79 78 77 77 77 76 76 75 73 71 68 65 63 61 59 59 58 58 58 58 59 59 60 60 61 61 62 63 64 65 66 67
43 45 47 48 49 50 53 57 60 63 65 65 62 57 54 53 54 56 58 60 62 63 65 66 67 68 68 68 67 67 67 66 65 64 64 64 65 65 65 66 66 67 67 67 68 68 70 71 72 74 75 76 77 77 77 77 76 75 74 72 71 69 67 65 63 60 59 58 58 57 58 59 59 60 60 60 61 61 62 62 63 64 65 66 67 68 69
45 47 49 49 49 51 53 55 58 60 62 62 60 57 55 55 56 57 58 59 61 62 63 64 65 66 66 67 67 67 68 68 68 68 67 68 68 68 68 68 68 68 69 69 70 70 71 72 73 74 74 75 74 74 73 72 70 68 66 65 63 62 61 59 58 58 57 58 58 58 59 59 60 61 61 62 62 63 63 64 65 66 67 68 70 71 71
46 48 49 50 51 53 55 57 58 59 60 59 57 54 52 53 55 57 58 58 59 60 61 62 62 62 62 62 62 63 64 66 67 68 68 68 68 68 68 68 68 68 68 67 67 67 68 68 68 68 68 67 67 66 64 63 62 61 60 60 59 59 58 58 58 58 58 59 59 60 60 61 61 62 63 63 64 64 65 66 67 68 69 70 71 72 72
47 49 51 52 53 54 55 56 57 58 58 57 55 53 50 48 50 53 56 58 59 59 59 59 59 60 60 60 60 60 61 62 64 65 66 66 66 66 66 66 65 65 64 63 62 62 62 62 62 61 61 61 60 59 58 58 57 58 58 58 58 58 58 58 59 59 59 60 61 61 62 62 63 63 64 64 65 66 66 67 68 69 69 70 71 71 70
48 50 52 53 53 53 53 55 56 57 57 57 55 53 50 48 47 49 53 56 58 59 58 58 58 58 59 59 60 60 60 61 62 63 63 64 64 64 64 64 64 63 63 62 62 62 61 60 60 59 58 58 57 57 56 56 57 58 58 58 58 58 59 59 60 60 61 61 61 62 63 63 64 64 65 66 66 67 67 68 68 69 69 69 69 68 67
Wind_Direction
133 140 145 148 153 157 162 174 182 183 183 184 186 190 194 199 202 201 200 201 203 207 209 211 212 211 207 205 204 203 203 204 206 209 212 215 218 220 223 224 225 226 227 228 229 230 230 231 232 232 232 232 233 235 237 239 242 245 247 251 254 254 254 258 265 268 270 270 271 275 280 282 284 286 289 291 292 292 292 292 291 291 291 291 292 292 292
135 142 143 145 151 155 157 162 171 180 185 187 186 187 189 193 197 198 198 200 203 207 209 210 212 211 206 202 202 203 203 204 206 208 212 215 217 219 221 223 225 226 227 227 229 230 231 232 233 233 233 233 234 236 238 240 243 245 247 252 254 252 253 262 267 268 267 266 271 278 284 287 288 289 291 293 294 293 293 292 292 292 292 292 293 293 293
133 139 141 144 149 156 158 159 164 174 183 186 185 185 186 188 193 195 196 199 203 207 209 210 211 211 206 200 200 203 204 204 205 208 210 214 216 219 220 222 225 227 228 229 230 231 232 232 232 233 233 234 235 237 240 242 243 245 248 251 252 251 255 263 267 266 265 267 273 279 284 288 289 289 291 294 295 294 293 293 293 293 293 294 295 295 295
129 136 142 146 150 156 161 162 163 168 175 180 184 185 184 186 190 192 194 197 201 206 209 211 212 211 206 201 199 202 204 205 206 209 210 212 215 218 220 222 224 227 229 231 231 232 233 232 231 232 233 235 236 238 240 242 243 245 247 249 252 255 258 262 264 264 265 270 275 279 283 287 288 287 290 294 295 295 295 294 294 294 295 296 297 297 297
127 134 142 148 151 155 161 164 164 165 168 174 179 181 182 185 188 190 193 195 197 200 204 208 210 210 206 201 200 201 203 205 207 209 211 212 214 217 220 222 224 226 229 230 231 232 232 232 232 234 234 235 236 237 240 242 244 246 246 248 254 258 258 260 263 265 267 271 275 279 283 285 284 285 290 294 296 297 297 295 295 295 296 298 298 298 297
121 130 140 146 148 151 156 159 160 161 164 169 174 177 179 182 186 188 191 193 192 191 193 198 202 204 204 201 199 200 203 205 208 212 213 213 215 218 220 221 222 224 226 227 229 231 233 234 235 235 235 235 237 240 242 244 246 245 245 249 256 258 258 261 264 266 269 272 275 279 282 281 282 285 291 295 298 299 298 296 296 296 298 300 300 298 297
118 123 136 142 145 148 151 153 153 154 158 164 169 173 176 179 182 183 185 186 185 180 179 185 190 194 199 200 196 197 200 202 205 213 217 218 217 218 220 221 222 224 225 226 229 231 234 236 236 235 235 237 240 242 243 245 245 244 246 252 257 259 260 263 265 267 270 274 277 279 279 278 281 287 292 296 298 299 297 296 296 297 299 301 300 299 297
117 122 133 141 145 147 148 148 148 150 158 164 167 169 171 174 174 173 173 174 172 168 168 173 180 185 193 197 195 194 196 195 195 204 216 221 221 218 218 220 222 224 226 227 229 231 233 235 235 235 236 238 239 241 244 247 248 249 252 256 259 260 262 264 266 268 272 275 277 278 277 278 282 288 292 295 298 298 296 295 295 298 301 301 300 299 298
109 118 128 137 141 142 143 146 146 149 157 163 166 167 167 167 163 156 156 158 159 164 168 168 174 183 190 195 196 194 193 192 191 193 205 216 220 218 217 218 220 223 225 227 229 230 232 234 235 236 237 239 241 243 247 251 253 254 256 257 259 261 263 264 266 269 272 274 275 277 278 280 285 289 292 296 300 299 296 295 296 299 302 302 300 300 299
109 116 124 132 137 138 144 147 145 150 157 158 162 167 165 160 151 146 148 155 160 167 169 164 169 181 189 192 193 189 187 190 193 196 202 211 215 216 218 220 221 223 225 226 228 230 232 235 237 239 241 243 244 246 249 252 254 256 256 256 257 259 261 264 266 268 270 272 274 277 279 281 284 287 291 295 298 296 292 292 295 298 301 301 300 300 300
114 119 125 130 133 137 147 147 140 147 160 161 162 166 163 153 146 146 152 161 167 169 166 161 164 173 181 186 186 183 183 188 193 198 205 207 207 209 214 218 221 223 225 226 227 230 233 236 238 240 242 243 244 246 249 252 254 256 254 253 255 258 261 264 265 266 268 271 273 277 278 280 282 285 288 291 291 289 287 287 291 295 298 299 299 300 299
117 123 127 131 133 137 148 150 138 143 162 167 164 164 160 151 147 149 154 161 168 169 165 162 163 167 173 181 186 186 188 191 194 198 201 198 197 200 205 210 216 220 222 224 226 229 233 237 239 242 244 245 246 249 251 251 251 251 251 253 257 260 262 263 263 264 268 271 274 276 277 279 283 286 288 289 289 287 285 286 289 293 295 296 297 298 298
121 124 127 131 134 138 149 157 147 146 162 172 170 168 163 155 153 154 155 158 166 170 168 165 165 169 176 182 186 189 193 194 195 196 196 194 193 195 200 206 212 215 216 219 223 229 235 238 242 246 248 248 249 250 251 250 249 250 253 257 261 262 261 261 261 266 271 275 276 276 275 277 281 284 287 289 288 287 286 286 288 290 292 293 295 296 298
127 126 130 135 138 142 151 161 161 154 157 168 177 178 169 161 161 161 161 163 168 171 173 172 172 177 183 184 184 187 192 196 196 196 195 195 196 200 206 213 218 219 218 219 223 228 234 239 244 248 251 251 250 250 251 252 253 255 257 259 261 260 258 259 262 268 273 276 274 272 274 277 280 283 287 288 288 287 287 287 287 288 290 292 293 295 297
131 130 135 139 140 143 150 160 167 163 155 161 178 183 170 165 167 167 167 170 168 167 172 176 179 184 189 189 187 188 190 195 197 196 196 196 198 203 209 215 220 222 223 225 229 234 240 244 249 252 254 255 253 251 252 254 256 259 260 260 259 258 256 259 265 269 271 271 271 271 274 278 280 283 287 288 286 286 286 286 286 287 288 291 293 295 297
138 135 136 137 138 139 144 154 166 168 159 162 176 181 171 169 172 172 171 173 169 164 170 178 183 187 190 191 191 193 195 199 200 199 198 198 200 205 210 215 220 225 229 233 236 239 244 247 249 252 254 254 254 253 253 255 258 260 261 260 259 259 259 262 266 267 267 269 271 272 275 278 281 283 286 286 285 285 284 284 285 286 288 290 293 294 296
145 141 138 135 133 131 133 143 158 165 163 165 177 184 180 176 176 177 177 177 173 168 170 179 185 188 189 189 190 192 195 198 200 202 203 205 207 209 213 219 225 231 238 244 247 250 252 253 254 254 252 250 251 253 255 258 261 264 265 264 263 262 263 265 267 269 271 273 273 273 275 278 280 282 284 283 283 282 282 283 284 285 287 290 292 293 294
146 141 135 131 129 128 128 134 145 155 162 168 179 189 189 183 179 179 181 183 180 174 174 179 184 187 188 187 185 185 186 188 191 196 200 204 206 207 211 221 231 239 247 254 258 261 262 265 266 263 259 258 259 260 264 266 267 269 271 270 268 265 265 267 268 268 268 268 269 271 275 278 280 282 282 281 280 280 281 282 283 285 288 290 291 292 293
148 143 138 135 135 133 132 137 140 142 152 166 177 182 185 185 181 179 181 187 187 181 179 182 184 187 189 188 185 184 184 186 190 194 197 200 201 200 200 205 221 239 250 255 262 267 270 276 276 270 270 271 267 267 274 276 274 274 274 272 270 267 266 267 265 263 260 261 265 272 276 279 281 281 281 279 279 279 280 281 283 285 287 288 289 290 292
153 148 143 141 138 132 130 137 139 135 143 159 167 173 179 183 183 182 184 192 197 191 187 185 184 188 194 195 194 194 194 193 194 195 196 197 197 196 195 196 203 221 238 248 260 267 267 267 262 258 261 261 257 262 276 281 279 278 276 273 271 269 267 266 265 263 263 265 269 274 277 279 279 279 278 278 278 279 279 281 283 284 285 286 288 290 292
157 151 146 141 137 134 136 141 144 142 145 148 150 160 171 177 180 180 181 187 197 198 195 189 184 186 191 192 195 200 201 199 196 194 194 195 195 197 198 195 196 207 223 233 241 243 239 236 236 240 242 241 244 257 270 276 280 281 278 273 271 268 266 265 266 266 267 270 272 275 276 277 277 277 277 277 277 278 279 281 283 283 283 285 288 290 291
161 155 151 147 143 143 146 149 150 149 147 143 140 143 149 154 159 161 158 159 175 193 205 204 196 194 194 190 186 190 193 192 190 190 193 195 196 197 197 193 191 198 212 220 223 223 223 225 228 231 234 238 245 255 264 272 279 281 277 274 271 268 267 267 268 268 270 272 274 275 276 276 276 276 276 276 277 278 280 281 281 281 282 285 288 289 290
167 161 156 154 152 151 154 157 156 153 152 150 148 145 143 144 147 149 146 146 171 207 226 221 207 199 194 188 183 183 185 186 186 190 194 196 196 195 194 192 191 196 206 212 213 211 213 216 219 223 230 238 243 251 263 272 276 275 273 272 271 269 269 269 270 270 272 273 274 275 276 276 276 276 276 276 276 278 279 280 280 281 283 285 287 288 290
172 166 163 161 159 158 160 161 159 157 158 158 157 157 158 160 161 161 162 174 200 223 231 225 210 196 187 183 181 182 183 186 189 192 194 196 195 193 193 193 191 193 200 207 207 204 205 209 213 217 223 230 237 250 265 273 273 272 271 271 271 269 269 269 270 271 272 273 274 274 274 275 275 274 275 276 277 279 279 279 280 281 283 285 286 288 289
177 172 170 169 165 163 164 164 162 161 161 163 164 166 169 171 172 175 181 189 202 214 219 218 208 194 185 182 181 181 184 189 193 194 193 194 194 193 193 194 192 193 200 204 201 199 202 207 212 216 221 229 240 254 265 269 272 272 271 269 270 270 269 269 269 270 270 271 272 273 273 274 274 275 275 276 277 278 279 279 280 282 283 284 286 287 288
182 177 176 175 171 168 168 168 166 166 167 170 173 174 175 178 180 184 189 195 201 205 207 206 200 191 183 181 181 184 188 190 192 194 194 195 195 194 196 198 196 196 203 209 206 202 203 210 216 220 226 235 246 255 260 264 269 270 268 267 269 270 269 269 269 268 269 270 271 273 275 275 275 275 276 277 278 278 279 280 281 282 283 284 285 287 288
188 182 180 179 176 173 172 172 172 173 174 177 179 180 181 185 188 190 192 196 202 203 198 194 191 186 182 181 184 187 189 190 192 196 197 195 196 197 199 201 199 195 199 211 216 213 211 214 222 228 234 241 247 252 255 260 263 263 261 262 265 266 266 267 267 268 269 271 273 275 276 277 276 276 276 277 278 278 279 280 281 282 284 285 286 287 288
193 186 183 183 181 179 178 178 178 178 180 184 186 186 187 190 193 195 194 195 199 198 192 189 187 184 182 183 186 189 191 192 194 197 196 196 200 204 203 202 200 195 193 205 218 220 219 221 227 234 240 245 247 250 254 257 256 253 254 256 259 261 264 266 268 269 271 273 275 276 277 278 278 279 279 280 280 280 281 282 283 284 285 285 286 287 288
199 192 187 187 186 185 184 184 183 181 185 190 191 190 191 195 198 199 195 192 193 195 192 189 187 185 185 186 188 190 192 194 195 195 194 197 203 207 206 205 202 198 198 206 216 220 223 227 231 237 243 247 249 252 255 256 253 249 248 249 253 258 264 267 269 271 274 275 277 278 278 279 280 280 280 280 281 283 285 285 285 285 285 285 286 286 287
205 199 193 191 191 189 188 188 187 186 187 191 193 195 197 200 202 201 197 193 192 193 194 192 189 188 189 189 190 192 193 194 194 194 195 198 204 208 209 208 205 204 208 215 219 220 222 226 230 234 239 243 247 252 255 256 254 249 245 245 249 258 265 269 272 275 277 279 280 281 281 281 281 281 280 281 283 285 287 287 287 287 286 286 286 287 288
210 206 200 197 195 193 192 191 191 191 192 194 199 203 204 202 202 202 201 198 194 193 195 196 194 194 194 193 193 195 195 193 193 195 199 202 205 209 211 211 209 210 213 217 220 221 220 222 227 232 237 240 245 250 254 255 253 249 245 245 251 259 266 271 275 277 279 280 282 283 283 283 283 282 281 282 283 285 286 287 288 288 288 288 289 289 290
213 210 206 203 200 197 196 194 194 194 196 200 205 209 207 203 202 203 203 201 197 196 197 199 198 198 197 196 196 197 197 196 197 201 205 207 209 210 211 211 211 213 216 219 223 224 223 224 230 235 238 241 245 250 253 254 252 250 249 251 255 260 265 271 275 278 280 281 282 283 284 285 285 284 283 283 284 285 285 286 287 288 289 289 290 291 291
217 213 209 208 206 203 200 198 197 198 200 204 208 210 206 202 203 204 204 203 200 199 200 201 201 201 200 200 199 200 201 203 205 209 213 215 215 213 212 211 211 214 218 221 222 223 225 228 233 236 238 242 245 249 253 254 254 254 254 256 258 262 267 271 275 279 281 283 283 284 285 286 286 286 286 286 286 286 286 286 287 288 289 289 290 290 290
221 217 213 211 210 209 206 202 201 201 203 206 210 211 208 204 204 205 204 203 202 201 201 202 203 204 204 204 204 205 206 207 210 212 216 219 219 216 214 212 212 215 220 222 222 223 227 231 234 237 240 244 248 251 254 257 259 261 262 263 265 268 271 274 277 280 282 284 285 285 286 286 287 287 288 288 288 288 288 287 287 288 288 288 288 288 288
221 220 216 213 213 214 213 209 205 205 206 208 211 212 210 207 206 206 206 205 204 203 202 202 204 206 207 207 207 207 208 210 211 212 215 218 219 217 215 214 215 218 222 225 226 228 230 233 236 241 244 248 252 255 258 261 264 265 266 267 269 272 275 277 280 282 284 285 285 286 286 287 288 288 289 289 288 288 287 287 287 287 287 287 287 287 287
220 221 219 216 214 215 217 216 213 210 209 210 212 214 213 211 209 209 209 209 208 205 203 202 204 206 208 209 210 210 211 213 214 214 215 217 217 216 215 216 218 221 226 230 231 232 233 235 239 243 247 251 255 257 260 264 266 267 267 269 271 273 276 278 281 282 283 284 285 285 286 287 288 288 288 288 287 286 286 286 286 286 286 287 287 287 287
220 221 221 219 216 215 216 218 218 216 214 213 214 215 216 215 213 212 212 212 212 209 205 203 205 206 208 210 211 212 213 215 217 218 218 218 217 216 216 217 220 223 228 233 236 236 236 238 240 243 248 252 255 257 260 263 265 267 269 271 273 275 277 279 280 282 283 284 285 286 287 287 288 288 287 286 286 286 286 286 286 287 287 287 287 287 288
220 221 220 220 220 218 216 217 219 220 220 218 217 217 219 219 217 215 214 215 216 214 210 206 206 207 209 210 212 213 215 217 219 220 220 221 220 219 219 220 223 225 229 234 238 240 241 241 242 244 248 251 254 256 258 260 262 265 268 271 273 275 277 279 280 282 282 283 284 285 286 286 286 285 285 285 285 285 285 285 286 287 287 288 288 289 289
221 221 220 220 221 221 220 219 219 220 221 222 221 220 221 221 221 219 218 217 218 217 215 211 208 208 209 211 212 214 216 218 220 221 222 223 223 223 223 224 225 227 230 233 237 241 243 244 245 246 249 251 253 254 256 258 260 263 266 270 273 275 277 278 279 280 281 282 284 285 285 286 285 285 285 285 285 285 285 285 286 287 288 289 289 289 289
221 221 220 219 220 222 223 224 223 221 221 222 224 224 223 223 224 223 222 221 220 219 218 216 213 210 210 212 213 214 216 218 220 222 223 224 225 225 225 226 227 228 230 233 236 240 243 245 246 248 251 254 256 258 258 259 261 263 266 269 272 274 276 277 278 278 280 281 283 284 285 286 286 286 286 286 286 286 286 286 287 288 288 288 288 288 288
222 221 220 219 219 221 223 226 227 226 223 222 223 225 226 225 225 225 225 225 224 223 222 221 219 216 213 213 215 216 218 219 220 221 223 225 227 227 228 228 228 229 230 232 235 239 242 244 246 249 252 255 259 261 262 263 264 264 266 267 269 272 273 275 276 277 279 281 283 284 285 286 286 286 286 286 286 286 286 287 287 287 287 286 286 286 286
222 221 219 218 219 221 224 225 228 229 228 224 223 224 225 225 225 225 226 227 227 226 225 224 224 222 220 217 217 218 220 222 222 223 224 226 228 230 231 231 231 232 232 233 236 239 241 244 246 248 251 254 258 260 262 263 264 265 266 267 269 271 273 274 276 278 280 281 283 284 285 285 285 286 286 286 286 286 286 286 286 286 286 286 286 286 286
223 221 219 218 218 221 224 225 227 229 230 228 226 224 224 225 225 225 227 229 230 230 229 228 228 227 226 224 222 222 223 224 225 226 227 229 231 233 235 235 236 236 237 238 239 241 243 245 247 248 250 253 256 258 260 262 263 265 266 268 270 272 274 276 277 279 281 282 283 283 284 284 285 286 286 286 286 286 286 286 286 286 286 286 286 286 287
226 221 219 218 219 221 223 225 226 228 230 231 230 226 224 225 225 226 227 229 231 232 232 232 231 230 230 229 228 227 227 227 228 229 230 232 234 235 237 238 239 240 241 242 243 243 244 246 247 249 250 252 255 257 260 262 263 266 268 270 272 274 275 277 278 279 280 281 282 282 283 283 283 284 284 284 283 283 283 284 284 284 284 285 285 286 287
228 224 220 220 221 221 222 224 226 228 230 233 233 229 226 225 227 227 227 229 230 232 233 234 234 234 233 233 232 232 231 231 231 232 233 234 235 237 238 240 241 242 244 245 246 246 247 248 249 251 252 254 257 259 261 263 265 267 269 270 272 274 275 276 277 278 279 280 280 280 280 280 280 281 281 281 281 281 282 282 283 283 284 285 286 287 288
229 227 224 222 222 222 222 224 226 228 231 234 235 233 229 227 228 229 230 230 230 231 233 235 236 237 237 237 236 236 236 235 235 235 235 237 238 239 240 241 242 244 245 247 248 249 250 251 252 253 255 256 258 260 261 263 264 266 268 269 271 272 273 275 276 277 277 277 277 277 277 278 278 279 280 280 281 282 283 283 284 285 286 286 287 288 288
230 229 228 226 225 223 223 225 227 229 231 234 236 235 232 230 230 230 231 232 232 232 233 235 237 239 240 241 241 241 241 241 240 240 240 241 241 241 242 242 243 244 246 247 248 249 250 251 252 254 255 257 258 260 261 263 265 267 268 270 270 271 272 273 273 273 273 273 274 274 276 277 278 278 279 280 281 282 283 284 285 286 286 287 287 288 289
230 230 230 230 228 227 227 228 230 232 234 236 238 236 232 230 230 231 231 232 233 234 235 236 237 239 241 242 243 243 243 244 244 244 245 246 246 247 247 247 247 248 249 251 252 253 253 254 255 257 258 260 261 263 264 265 267 268 269 269 269 270 270 270 270 270 270 271 272 273 274 276 277 278 279 280 281 281 283 283 284 285 286 286 287 288 289
229 230 231 231 230 230 230 231 233 235 237 239 240 237 233 229 229 230 231 232 233 235 236 237 238 239 241 242 243 243 243 243 244 245 246 248 249 251 252 252 253 254 255 256 257 257 258 258 259 260 261 262 262 263 264 265 265 266 266 266 267 267 267 268 268 269 270 271 272 273 274 275 276 277 278 280 280 281 282 283 284 285 286 287 288 289 290
230 230 231 231 230 230 231 232 234 236 239 242 243 241 237 233 230 230 232 233 234 236 237 238 239 240 242 243 243 244 244 244 244 245 247 248 250 251 253 254 255 255 256 257 258 258 258 259 259 260 260 261 261 262 262 263 263 263 263 264 265 266 266 267 269 270 271 272 273 274 274 275 276 277 278 279 280 281 283 284 285 286 287 288 289 290 291
231 231 232 233 233 233 234 234 236 238 241 244 246 246 244 240 235 233 233 234 235 237 238 239 240 241 243 244 244 244 244 244 245 246 247 249 250 251 252 253 254 255 256 256 257 257 257 258 258 259 259 260 260 260 261 261 261 262 262 263 264 265 267 268 269 270 271 272 273 274 275 276 277 278 279 280 281 283 284 285 287 288 288 289 290 290 291
233 233 234 236 237 237 237 237 238 239 242 245 246 247 246 245 241 237 235 235 236 237 239 240 241 241 242 243 244 244 244 245 245 247 248 249 250 251 251 252 253 254 254 255 255 256 256 257 258 259 259 260 260 260 260 260 260 261 263 264 265 267 268 269 270 271 272 273 274 275 276 277 278 280 281 282 284 285 286 287 288 288 289 289 290 291 292